CDT,Max TemperatureF,Mean TemperatureF,Min TemperatureF,Max Dew PointF,MeanDew PointF,Min DewpointF,Max Humidity, Mean Humidity, Min Humidity, Max Sea Level PressureIn, Mean Sea Level PressureIn, Min Sea Level PressureIn, Max VisibilityMiles, Mean VisibilityMiles, Min VisibilityMiles, Max Wind SpeedMPH, Mean Wind SpeedMPH, Max Gust SpeedMPH,PrecipitationIn, CloudCover, Events, WindDirDegrees
2012-3-1,78,54,31,35,27,16,85,42,13,29.84,29.66,29.45,10,10,10,16,7,22,0.00,0,,171
2012-3-2,58,48,38,31,25,19,61,42,22,30.02,29.81,29.47,10,10,10,20,15,23,0.00,0,,355
2012-3-3,56,44,33,27,18,14,59,36,19,30.19,30.11,30.02,10,10,10,15,8,,0.00,1,,313
2012-3-4,71,48,25,33,23,14,74,42,17,30.18,30.12,30.09,10,10,10,7,3,,0.00,0,,223
2012-3-5,77,56,35,34,30,28,74,43,16,30.28,30.16,30.01,10,10,10,29,8,38,0.01,0,,145
2012-3-6,75,62,48,52,45,34,74,55,41,30.00,29.88,29.77,10,10,10,33,19,40,0.03,1,,158
2012-3-7,80,66,53,62,55,50,99,71,40,29.84,29.78,29.69,10,10,10,28,17,32,0.00,4,,151
2012-3-8,62,48,35,63,39,30,100,91,65,30.53,30.14,29.83,10,7,2,44,24,59,2.10,8,Rain-Snow-Thunderstorm,18
2012-3-9,58,48,38,36,29,22,79,54,25,30.57,30.47,30.38,10,10,10,16,12,23,0.00,3,,44
2012-3-10,51,46,42,45,41,32,100,87,54,30.38,30.18,30.08,10,7,2,18,7,18,0.38,8,Rain,112
2012-3-11,65,54,44,50,46,44,100,91,54,30.08,29.97,29.75,10,9,4,20,8,25,0.09,6,Rain,179
2012-3-12,79,59,39,56,44,37,100,68,27,29.94,29.88,29.80,10,10,10,10,6,,0.00,0,,150
2012-3-13,78,58,39,62,50,38,100,75,50,30.04,29.97,29.90,10,10,10,22,7,25,0.00,0,,152
2012-3-14,75,66,57,66,62,57,100,92,69,30.03,29.97,29.94,10,7,0,21,10,26,0.00,5,Fog,160
2012-3-15,79,70,60,66,63,61,100,93,57,30.03,30.00,29.93,10,6,0,23,12,26,0.00,5,Fog,166
2012-3-16,78,68,57,68,61,57,100,90,57,30.00,29.95,29.86,10,5,0,25,9,33,0.00,3,Fog,146
2012-3-17,76,69,61,66,64,61,100,86,68,29.89,29.85,29.78,10,10,10,28,16,36,0.00,6,,154
2012-3-18,76,68,59,65,64,60,100,84,65,29.84,29.76,29.63,10,10,10,26,15,36,0.00,6,,139
2012-3-19,67,60,51,63,55,45,100,92,54,29.72,29.66,29.60,10,8,2,24,11,34,0.92,7,Rain-Thunderstorm,129
2012-3-20,61,54,45,50,43,26,94,67,30,29.81,29.72,29.62,10,10,10,21,10,26,0.00,4,Rain,157
2012-3-21,60,48,37,46,42,37,100,81,50,29.85,29.78,29.71,10,10,4,13,8,,0.06,3,Rain-Thunderstorm,336
2012-3-22,57,48,40,48,44,40,100,86,61,29.96,29.82,29.71,10,9,2,22,9,24,0.27,5,Rain,11
2012-3-23,72,58,46,55,48,43,99,76,44,30.04,29.98,29.94,10,10,10,8,4,,0.00,2,,232
2012-3-24,76,60,44,60,54,44,99,81,56,30.05,29.99,29.94,10,10,10,12,7,,0.00,0,,95
2012-3-25,80,65,51,65,58,52,100,87,54,30.06,30.00,29.95,10,10,10,16,7,,0.00,0,Rain,114
2012-3-26,78,64,50,62,56,50,100,87,50,30.03,29.97,29.88,10,7,0,22,8,25,0.00,0,Fog-Rain,143
2012-3-27,80,68,56,62,59,56,99,81,51,29.96,29.90,29.85,10,10,8,21,11,26,0.00,0,Rain,147
2012-3-28,82,71,60,68,63,59,100,89,46,29.95,29.90,29.82,10,8,3,16,10,22,0.00,2,Rain,150
2012-3-29,80,66,53,66,59,53,100,94,61,29.86,29.83,29.70,10,4,0,24,7,25,0.00,0,Fog-Rain,135
2012-3-30,80,70,60,68,64,60,100,88,57,29.83,29.77,29.71,10,9,6,21,12,31,0.00,6,Rain,99
2012-3-31,81,68,55,69,63,55,100,95,60,30.01,29.78,29.70,10,4,0,15,6,,0.00,3,Fog,45